User: anonymous   Login
Location: Unspecified
(0.0000°N, 0.0000°E)
Time: 01:08:09
(UTC+00:00)
Language:

STARLINK-5526 - Orbit

View from above orbital plane
View from above orbital plane
View from above satellite
View from above satellite

Ground track
Ground track

The orbit is defined by the following mean orbital elements,

1 56496U          26145.38765986 +.00000000 +00000-0 +27167-4 0 00000
2 56496  69.9992 270.9672 0003675 267.7897  92.2841 14.98329114    04
Epoch (UTC): 25 May 2026 09:18:13
Eccentricity: 0.0003675
inclination: 69.9992°
perigee height: 570 km
apogee height: 575 km
right ascension of ascending node: 270.9672°
argument of perigee: 267.7897°
revolutions per day: 14.98329114
mean anomaly at epoch: 92.2841°

The dashed part of the orbit path shows where the satellite is in the earth's shadow,  

DLR